GW1765 Weather Reports


Display with metric or nautical units.
time (UTC)temp
F
wind
direction
speed
MPH
gust
MPH
rain 1hr
in
rain 24hr
in
rain mn
in
humidity
%
barometer
mb
20260831010032 57 247 14.0 26.0 0.00 0.18 0.11 73 1007.3
20260831005029 58 237 15.0 22.0 0.00 0.18 0.11 72 1007.4
20260831004027 59 249 13.0 26.0 0.00 0.18 0.11 73 1007.6
20260831003021 59 245 14.0 23.0 0.00 0.18 0.11 75 1007.7
20260831002018 58 270 13.0 22.0 0.01 0.19 0.11 73 1007.9
20260831001158 59 267 15.0 21.0 0.01 0.19 0.11 75 1007.9
20260831000111 59 225 8.0 20.0 0.01 0.19 0.11 81 1008.1
20260830235107 59 278 12.0 23.0 0.01 0.19 0.11 81 1008.0
20260830234107 57 238 11.0 18.0 0.01 0.19 0.11 80 1008.1
20260830233103 56 230 13.0 24.0 0.01 0.19 0.11 76 1008.0
20260830232058 57 215 13.0 21.0 0.00 0.18 0.09 77 1008.0
20260830231053 58 242 15.0 21.0 0.02 0.18 0.09 79 1008.1
20260830230051 58 222 11.0 21.0 0.02 0.18 0.09 81 1008.3
20260830225108 57 225 10.0 13.0 0.02 0.18 0.09 82 1008.3
20260830224044 56 231 10.0 17.0 0.02 0.18 0.09 82 1008.4
20260830223040 55 239 12.0 23.0 0.02 0.18 0.09 80 1008.4
20260830222117 55 225 15.0 25.0 0.02 0.18 0.09 76 1008.4
20260830221034 57 225 14.0 25.0 0.00 0.15 0.07 79 1008.3
20260830220032 56 237 11.0 20.0 0.00 0.15 0.07 80 1008.1
20260830215028 56 235 12.0 17.0 0.00 0.15 0.07 83 1008.3
20260830214022 55 223 12.0 20.0 0.00 0.15 0.07 84 1008.4
20260830213019 55 215 11.0 18.0 0.00 0.15 0.07 86 1008.4
20260830212035 55 232 11.0 16.0 0.00 0.15 0.07 88 1008.4
20260830211112 55 229 12.0 17.0 0.00 0.15 0.07 89 1008.3
20260830210109 54 234 12.0 19.0 0.00 0.15 0.07 92 1008.4
20260830205106 54 229 11.0 24.0 0.04 0.15 0.07 92 1008.4
20260830204101 55 258 6.0 17.0 0.04 0.15 0.07 90 1008.4
20260830203143 53 240 6.0 11.0 0.04 0.15 0.07 91 1008.4
20260830202115 52 232 11.0 16.0 0.05 0.15 0.07 90 1008.6
20260830201052 52 241 11.0 19.0 0.05 0.15 0.07 90 1008.7
20260830200048 52 257 12.0 21.0 0.05 0.15 0.07 89 1008.6
20260830195046 52 227 8.0 17.0 0.01 0.12 0.04 88 1008.4
20260830194041 52 258 6.0 16.0 0.01 0.12 0.04 88 1008.3
20260830193039 52 241 7.0 15.0 0.01 0.12 0.04 88 1008.0
20260830192034 52 259 7.0 17.0 0.00 0.11 0.02 88 1008.0
20260830191031 52 261 6.0 11.0 0.01 0.11 0.02 88 1007.8
20260830190026 52 265 6.0 11.0 0.01 0.11 0.02 88 1007.7
20260830185023 51 231 8.0 15.0 0.01 0.11 0.02 87 1007.9
20260830184019 51 272 8.0 15.0 0.01 0.11 0.02 87 1008.1
20260830183018 51 230 10.0 16.0 0.01 0.11 0.02 86 1008.1
20260830182115 51 239 8.0 14.0 0.01 0.11 0.02 87 1007.9
20260830181109 51 235 9.0 14.0 0.00 0.09 0.01 87 1007.8
20260830180106 51 240 9.0 17.0 0.00 0.09 0.01 87 1007.9
20260830175102 51 250 8.0 17.0 0.00 0.09 0.01 87 1007.8
20260830174059 51 221 8.0 12.0 0.00 0.09 0.01 87 1007.9
20260830173117 51 225 8.0 15.0 0.00 0.09 0.01 88 1007.8
20260830172053 51 233 9.0 14.0 0.00 0.09 0.01 88 1007.7
20260830171049 51 231 8.0 13.0 0.00 0.09 0.01 88 1007.7
20260830170107 51 244 10.0 16.0 0.00 0.09 0.01 88 1007.6
20260830165101 51 243 8.0 15.0 0.00 0.09 0.01 87 1007.5
20260830164039 51 237 9.0 15.0 0.00 0.09 0.01 87 1007.3
20260830163035 51 231 7.0 13.0 0.00 0.09 0.01 87 1007.3
20260830162031 51 236 6.0 11.0 0.00 0.09 0.01 86 1007.3
20260830161027 51 224 6.0 10.0 0.00 0.09 0.01 86 1007.2
20260830160026 51 225 8.0 14.0 0.00 0.09 0.01 86 1007.3
20260830155021 51 237 9.0 15.0 0.01 0.09 0.01 85 1007.4
20260830154017 51 225 11.0 17.0 0.01 0.09 0.01 85 1007.6
20260830153113 51 222 8.0 13.0 0.01 0.09 0.01 85 1007.6
20260830152135 51 213 10.0 16.0 0.01 0.09 0.01 86 1007.6
20260830151149 50 229 8.0 14.0 0.01 0.09 0.01 86 1007.7
20260830145059 50 197 10.0 15.0 0.00 0.08 0.00 87 1007.8
20260830144058 51 216 11.0 15.0 0.00 0.08 0.00 88 1007.9
20260830143055 51 241 10.0 16.0 0.00 0.08 0.00 89 1008.1
20260830142050 51 225 9.0 14.0 0.00 0.08 0.00 90 1008.1
20260830141048 51 246 10.0 17.0 0.00 0.08 0.00 90 1008.1
20260830140104 51 236 9.0 17.0 0.00 0.08 0.00 90 1008.1
20260830135040 51 226 9.0 15.0 0.00 0.08 0.00 90 1008.0
20260830134055 51 204 11.0 15.0 0.00 0.08 0.00 90 1008.0
20260830133031 51 198 10.0 14.0 0.00 0.08 0.00 91 1008.0
20260830132028 51 225 8.0 15.0 0.00 0.08 0.00 91 1008.0
20260830131024 51 225 12.0 20.0 0.00 0.08 0.00 91 1007.8
20260830130020 51 231 9.0 20.0 0.00 0.08 0.00 91 1007.7
20260830125017 51 212 10.0 15.0 0.00 0.08 0.00 91 1007.7
20260830124114 51 224 11.0 15.0 0.00 0.08 0.00 91 1007.6
20260830123110 51 201 11.0 14.0 0.00 0.08 0.00 91 1007.5
20260830122106 51 221 14.0 19.0 0.00 0.08 0.00 91 1007.5
20260830121103 52 209 14.0 18.0 0.00 0.08 0.00 92 1007.5
20260830120101 52 201 12.0 17.0 0.00 0.08 0.00 92 1007.5
20260830115056 52 236 13.0 17.0 0.00 0.08 0.08 93 1007.5
20260830114054 52 225 14.0 20.0 0.00 0.08 0.08 93 1007.5
20260830113052 52 216 12.0 19.0 0.00 0.08 0.08 93 1007.5
20260830112048 51 248 10.0 16.0 0.00 0.08 0.08 94 1007.4
20260830111045 51 229 8.0 13.0 0.00 0.08 0.08 94 1007.5
20260830110040 51 221 9.0 14.0 0.00 0.08 0.08 94 1007.3
20260830105036 51 232 10.0 15.0 0.00 0.08 0.08 94 1007.3
20260830104032 51 239 10.0 15.0 0.00 0.08 0.08 94 1007.3
20260830103031 51 234 7.0 11.0 0.00 0.08 0.08 95 1007.2
20260830102027 51 191 11.0 17.0 0.00 0.08 0.08 95 1007.1
20260830101044 52 211 17.0 27.0 0.00 0.08 0.08 95 1006.9
20260830100018 52 180 13.0 21.0 0.00 0.08 0.08 95 1007.0
20260830095116 52 208 15.0 20.0 0.00 0.08 0.08 95 1007.1
20260830094111 52 207 14.0 19.0 0.00 0.08 0.08 95 1007.0
20260830093110 52 228 12.0 17.0 0.00 0.08 0.08 95 1006.9
20260830092125 52 216 14.0 20.0 0.00 0.08 0.08 95 1007.1
20260830091103 52 188 12.0 17.0 0.00 0.08 0.08 95 1007.0
20260830090057 52 211 11.0 16.0 0.00 0.08 0.08 95 1006.9
20260830085119 52 217 12.0 16.0 0.00 0.08 0.08 95 1006.9
20260830084051 52 223 13.0 19.0 0.00 0.08 0.08 95 1006.9
20260830083047 53 204 15.0 22.0 0.00 0.08 0.08 95 1006.8
20260830082044 53 225 12.0 21.0 0.00 0.08 0.08 94 1006.7
20260830081040 53 225 11.0 23.0 0.00 0.08 0.08 94 1006.5
20260830080118 53 215 7.0 12.0 0.00 0.08 0.08 94 1006.3
20260830075035 53 228 11.0 19.0 0.00 0.08 0.08 94 1006.4
20260830074051 53 219 10.0 15.0 0.01 0.08 0.08 94 1006.4
20260830073026 52 212 10.0 17.0 0.01 0.08 0.08 94 1006.4
20260830072023 52 213 9.0 13.0 0.01 0.08 0.08 94 1006.3
20260830071020 52 202 10.0 17.0 0.01 0.08 0.08 94 1006.2
20260830070018 53 226 13.0 21.0 0.01 0.08 0.08 94 1006.1
20260830065114 53 236 12.0 20.0 0.01 0.08 0.08 94 1005.9
20260830064110 53 199 12.0 21.0 0.00 0.07 0.07 93 1005.8
20260830063107 53 222 10.0 14.0 0.00 0.07 0.07 93 1005.6
20260830062103 53 207 12.0 16.0 0.00 0.07 0.07 93 1005.8
20260830061120 53 222 15.0 24.0 0.00 0.07 0.07 93 1005.7
20260830060055 53 243 11.0 15.0 0.00 0.07 0.07 92 1005.5
20260830055051 53 231 11.0 15.0 0.00 0.07 0.07 92 1005.5
20260830054047 54 225 11.0 18.0 0.00 0.07 0.07 92 1005.5
20260830053044 53 222 13.0 20.0 0.05 0.07 0.07 91 1005.6
20260830052042 54 226 13.0 18.0 0.05 0.07 0.07 91 1005.6
20260830051039 54 225 14.0 21.0 0.06 0.07 0.07 90 1005.5
20260830050034 54 225 21.0 34.0 0.06 0.07 0.07 89 1005.5
20260830045052 54 236 14.0 29.0 0.06 0.07 0.07 85 1005.4
20260830044028 55 253 12.0 19.0 0.06 0.07 0.07 83 1005.4
20260830043023 56 281 9.0 16.0 0.01 0.02 0.02 83 1005.4
20260830042019 56 229 8.0 13.0 0.01 0.02 0.02 83 1005.3
20260830041017 56 266 9.0 18.0 0.00 0.01 0.01 83 1005.5
20260830040135 56 250 9.0 20.0 0.00 0.01 0.01 83 1005.5
20260830035109 57 252 11.0 17.0 0.00 0.01 0.01 83 1005.7
20260830034106 57 248 11.0 17.0 0.00 0.01 0.01 82 1005.7
20260830033103 56 244 12.0 17.0 0.00 0.01 0.01 81 1005.8
20260830032101 56 231 13.0 18.0 0.00 0.01 0.01 80 1005.8
20260830031055 56 222 12.0 19.0 0.00 0.01 0.01 79 1005.8
20260830030052 57 236 10.0 17.0 0.00 0.01 0.01 77 1005.8
20260830025050 57 236 12.0 21.0 0.00 0.01 0.01 75 1005.8
20260830024045 58 236 10.0 17.0 0.00 0.01 0.01 74 1005.8
20260830023041 59 216 13.0 26.0 0.00 0.01 0.01 75 1005.8
20260830022059 59 224 13.0 20.0 0.00 0.01 0.01 77 1006.0
20260830021034 58 225 13.0 20.0 0.00 0.01 0.01 77 1006.2
20260830020052 58 225 13.0 19.0 0.00 0.01 0.01 77 1006.2
20260830015027 57 229 16.0 23.0 0.00 0.01 0.01 74 1006.0
20260830014044 59 219 15.0 21.0 0.00 0.01 0.01 74 1006.1
20260830013020 59 238 13.0 18.0 0.00 0.01 0.01 74 1006.3
20260830012037 60 235 13.0 21.0 0.01 0.01 0.01 78 1006.3
20260830011114 61 224 12.0 19.0 0.01 0.01 0.01 81 1006.3